Wind_Speed
8 6 5 3 3 4 3 2 5 8 8 8 8 6 6 7 6 7 7 7 8 9 8 8 9 12 12 14 12 16 22 21 13 15 30 39 33 37 32 28 24 21 17
8 6 5 5 3 4 4 4 6 7 8 8 8 7 6 7 7 8 8 7 8 8 8 9 12 13 13 16 12 13 20 21 27 24 29 29 32 33 30 27 22 18 15
8 7 6 5 4 5 5 4 5 8 10 9 9 8 9 10 11 8 9 9 8 8 9 11 12 15 19 15 15 14 18 24 28 29 23 26 30 32 28 24 19 17 15
9 8 7 6 4 6 6 6 8 9 10 10 9 9 10 10 10 11 10 10 11 11 10 10 12 12 15 16 18 20 24 24 26 26 26 22 22 30 27 24 18 15 13
10 9 7 7 6 8 7 6 9 10 10 10 11 10 11 12 13 12 12 11 12 12 11 10 11 11 15 18 20 22 25 24 24 23 20 22 19 23 22 22 22 15 12
11 9 8 8 8 9 8 8 9 10 11 11 10 10 9 10 16 16 15 13 12 12 14 12 13 15 16 17 21 22 26 27 24 21 21 20 20 21 24 27 17 18 10
12 10 10 9 10 11 9 9 10 11 10 9 10 10 12 15 16 16 14 12 12 13 14 16 18 17 16 18 20 20 24 26 27 27 28 27 24 27 24 18 15 13 14
14 13 12 11 10 10 10 9 10 10 9 8 10 11 15 16 13 10 12 11 14 13 14 18 21 19 23 21 24 26 25 24 18 22 27 32 22 20 20 17 16 18 17
17 15 15 14 13 11 11 10 9 10 9 7 9 14 17 17 10 10 12 13 15 15 16 19 21 19 22 19 23 24 17 15 14 15 17 20 20 20 18 19 17 16 13
19 18 17 14 14 12 10 10 9 12 12 12 14 15 14 14 12 11 14 18 20 20 20 21 25 26 21 15 13 14 14 14 18 21 19 21 21 18 18 11 15 12 12
20 19 18 16 15 13 11 10 12 14 15 14 15 13 14 14 13 13 15 15 21 19 18 21 22 19 13 8 12 12 15 19 19 17 17 17 16 16 13 11 12 9 10
21 21 19 17 15 14 13 12 12 14 16 14 15 13 11 12 13 13 14 16 18 20 19 20 23 18 11 9 11 14 17 19 17 17 15 14 13 12 12 13 12 11 8
21 22 21 19 17 15 14 14 14 13 14 14 14 13 12 12 13 14 14 17 16 13 15 17 18 15 9 7 10 15 17 14 15 14 13 13 12 13 17 17 17 17 18
23 23 22 21 19 17 15 15 15 15 14 13 13 14 13 12 13 13 16 17 16 14 15 15 14 13 12 12 15 14 10 10 11 12 13 13 14 15 15 14 15 13 13
25 24 23 22 22 20 18 18 17 16 16 16 14 14 15 14 15 17 18 16 15 14 17 14 12 10 11 12 12 12 10 11 10 11 14 16 15 15 13 12 12 10 8
26 25 26 24 23 21 20 15 20 18 20 18 16 15 14 13 16 17 16 15 16 17 15 14 14 14 15 15 14 13 13 14 14 14 16 17 17 17 15 14 11 9 12
30 27 26 26 24 22 21 21 18 18 20 21 19 17 16 16 17 17 17 15 15 18 14 15 16 16 16 15 15 16 16 16 15 16 18 18 18 17 19 16 14 13 13
33 34 30 29 26 25 23 22 21 19 19 18 23 22 20 19 16 18 21 20 18 20 16 16 17 17 17 17 17 17 16 16 17 17 17 17 18 18 20 17 16 14 13
31 30 30 30 28 27 24 23 22 21 20 19 17 21 25 23 22 20 21 20 19 19 20 19 18 17 17 18 18 18 18 18 19 19 18 19 19 19 18 17 15 14 14
31 31 33 29 27 27 27 25 24 23 22 21 21 21 19 25 19 21 25 21 21 21 20 21 20 19 19 19 19 19 18 19 19 19 19 20 20 21 21 21 21 25 23
29 27 34 29 29 30 29 28 26 24 24 23 24 23 27 26 26 25 23 24 24 24 24 22 21 22 21 20 20 21 22 22 23 24 22 22 23 23 21 21 22 22 25
30 28 32 30 27 28 29 28 27 25 24 23 23 22 30 31 25 25 25 25 26 27 25 24 24 23 21 21 21 21 23 24 24 24 24 24 24 25 24 25 25 24 26
29 29 29 29 28 27 26 28 27 27 26 25 24 22 22 26 27 26 25 25 25 26 26 26 25 25 24 24 25 27 27 28 29 28 27 26 26 27 29 30 35 30 32
27 28 29 29 26 26 27 27 28 29 28 27 25 24 24 23 25 27 28 26 25 25 25 26 28 29 27 25 24 26 26 26 25 28 30 29 31 34 34 34 30 33 32
21 21 20 23 26 28 27 27 28 28 27 28 26 25 25 23 23 24 24 25 25 25 25 25 25 26 29 30 28 28 27 31 28 26 28 30 38 39 39 42 43 40 32
20 18 11 11 18 22 25 24 26 26 27 26 27 27 26 25 25 24 24 24 24 23 22 22 25 28 29 31 33 31 31 30 31 31 33 35 37 37 36 41 45 39 32
Wind_Direction
165 162 155 132 129 130 134 141 151 141 153 161 163 158 145 155 146 149 148 149 146 151 147 144 143 147 136 140 157 151 141 142 118 115 114 140 133 136 140 140 143 147 144
165 162 159 141 128 123 108 117 132 137 150 166 167 158 152 140 135 137 134 142 147 140 131 138 135 137 142 146 152 141 137 142 134 131 132 132 132 141 140 140 145 142 139
163 164 161 147 117 118 110 114 120 135 143 152 161 160 150 139 137 135 132 132 136 135 135 132 132 132 141 153 147 134 136 131 139 136 129 128 136 142 139 139 141 135 138
159 167 160 146 116 126 109 106 118 122 131 141 145 141 137 131 135 133 135 130 129 135 135 131 131 146 146 148 154 144 138 128 134 137 133 127 130 141 141 134 130 134 132
160 169 158 145 121 128 113 114 124 126 126 133 133 130 132 135 138 133 131 125 122 124 132 130 133 136 144 152 146 142 140 133 139 134 135 128 133 136 137 143 139 145 119
164 171 155 146 133 134 116 113 116 120 132 136 134 130 132 140 144 139 132 129 124 125 129 128 135 140 139 150 145 145 146 141 142 141 143 139 142 146 146 153 153 150 126
167 167 158 147 139 133 121 114 123 129 128 134 140 144 139 135 140 138 134 131 134 136 136 130 133 130 123 131 153 144 148 145 138 142 141 150 157 164 158 159 156 146 133
171 169 164 155 146 141 128 121 127 126 122 126 154 152 147 141 138 135 138 140 143 141 135 140 134 129 132 123 120 124 115 122 124 147 156 167 163 163 161 156 148 134 128
177 175 174 165 161 153 137 130 131 137 124 112 133 153 152 148 148 147 144 142 145 140 138 140 140 137 139 129 131 138 135 120 118 137 152 159 161 160 161 147 147 144 132
183 181 179 177 170 164 148 136 127 137 127 118 120 137 138 142 142 142 144 143 142 144 143 140 144 136 135 133 143 146 135 127 122 126 128 144 153 155 158 164 163 164 144
184 182 180 183 180 172 158 142 132 136 134 131 122 129 134 141 139 140 145 136 141 141 141 144 144 145 134 107 138 142 140 139 136 132 135 139 148 158 167 168 162 166 155
181 182 182 184 183 178 166 153 143 141 140 139 137 135 136 139 139 148 151 142 136 134 142 150 161 159 144 116 133 138 149 155 149 140 132 130 133 136 144 152 160 156 145
181 183 183 181 183 182 172 162 156 153 151 151 150 147 150 152 145 141 144 154 153 140 149 161 167 170 166 149 140 144 142 135 144 143 139 136 139 142 141 137 135 135 130
181 184 183 181 182 182 182 178 174 174 170 167 160 153 152 156 159 161 158 157 157 158 159 166 178 184 182 177 164 163 167 162 159 159 154 149 144 142 142 142 137 130 115
182 182 185 187 185 185 187 188 191 192 186 181 180 171 165 167 174 167 164 163 166 170 171 165 164 167 167 170 173 179 180 184 176 168 162 159 160 159 158 157 154 153 138
182 182 185 189 190 191 189 191 197 202 205 203 198 188 186 184 178 179 179 179 179 176 172 177 184 188 189 189 188 188 192 192 190 184 180 176 175 173 169 168 170 164 152
183 184 184 185 190 193 195 197 197 215 213 216 218 215 209 202 197 195 194 193 194 188 192 195 199 200 201 201 199 199 198 198 193 191 189 186 182 180 176 177 174 167 160
185 185 183 188 191 194 197 200 202 201 204 213 222 220 219 219 214 209 210 209 194 205 214 213 211 210 209 209 207 206 202 196 196 196 194 192 189 187 185 184 181 176 166
186 187 188 188 192 195 196 200 203 204 206 208 204 217 220 220 222 222 221 208 209 213 218 222 222 218 214 214 214 211 207 203 198 196 197 196 194 192 192 189 183 175 156
189 190 187 188 189 192 198 202 204 207 207 207 207 211 201 211 210 213 216 216 221 222 221 223 225 224 222 219 217 215 212 208 204 203 202 202 201 197 193 183 176 161 154
190 191 190 191 193 194 198 204 208 210 212 213 214 211 206 202 212 217 217 218 222 225 226 226 226 228 226 222 217 213 213 214 212 209 205 201 195 192 190 185 174 170 159
188 189 192 199 199 201 201 202 205 210 216 218 222 220 218 214 217 221 222 223 225 227 229 230 231 231 229 226 226 224 223 220 216 211 208 202 196 188 184 178 171 164 165
187 188 193 200 203 206 203 205 208 210 213 218 220 217 214 217 218 219 222 225 224 224 225 226 228 229 228 229 228 226 223 225 222 215 206 199 194 190 180 174 172 161 165
187 191 193 198 203 205 209 212 213 214 215 217 220 221 219 220 220 221 221 218 218 222 224 226 227 228 229 229 229 230 231 229 223 221 208 195 184 180 175 169 163 164 168
191 189 201 200 200 207 209 211 216 218 218 218 220 221 222 223 223 226 224 225 225 222 222 221 226 232 232 231 231 234 233 233 218 208 201 195 194 192 181 171 168 167 169
182 163 179 226 233 222 218 214 216 218 220 218 218 223 224 222 225 225 225 223 224 227 226 226 229 232 235 236 234 230 232 235 226 219 211 204 195 178 167 163 166 165 170
Height
733 735 736 737 738 737 738 739 739 740 742 744 745 746 748 747 749 750 751 751 753 755 756 758 760 762 765 769 772 774 777 780 784 792 794 802 808 815 823 830 835 840 845
733 735 736 737 737 738 739 739 740 740 743 745 746 747 747 748 749 750 752 753 754 756 758 759 761 764 768 771 773 775 778 781 786 793 800 807 812 820 825 832 838 843 847
733 735 736 737 738 738 739 740 740 741 743 745 747 748 748 750 751 752 754 756 757 758 760 762 764 767 769 772 775 777 781 784 789 795 801 809 817 822 828 835 840 844 849
732 735 736 737 738 739 740 741 741 742 744 746 749 750 750 752 753 754 756 758 760 761 762 765 767 769 772 774 777 780 784 787 793 798 805 811 817 825 830 834 841 846 850
732 734 736 737 739 740 741 742 743 743 745 748 750 752 753 754 756 757 759 761 762 764 766 767 770 772 774 776 779 782 786 790 795 799 807 813 819 825 831 837 841 845 851
732 734 736 738 739 740 742 744 746 746 747 748 751 754 756 756 757 759 761 763 765 767 769 771 774 776 778 780 782 785 788 792 796 802 808 814 821 825 831 836 841 845 850
731 734 736 738 740 741 743 745 747 748 750 752 753 755 756 758 760 762 763 766 768 769 771 773 776 779 782 784 786 790 793 796 800 803 808 814 820 825 830 836 840 843 848
730 733 736 738 741 743 744 745 747 750 752 753 754 756 758 760 763 764 765 768 769 771 774 776 779 783 786 789 789 794 797 801 806 809 812 816 822 826 831 835 840 843 850
728 732 735 737 740 743 744 746 748 750 752 753 755 756 758 762 765 766 767 769 771 774 777 780 783 786 789 792 795 798 802 806 809 812 816 821 825 829 832 836 840 843 848
725 730 734 737 740 743 745 746 748 750 753 756 757 760 762 764 767 767 769 770 773 777 780 783 787 789 794 797 800 802 805 807 810 815 819 823 828 831 834 837 839 842 845
722 728 732 736 739 743 745 747 749 752 754 757 760 762 764 766 769 771 772 773 775 780 783 787 791 794 796 799 801 804 806 809 813 817 820 824 828 831 833 835 837 842 844
719 725 730 734 738 742 744 747 750 753 756 758 761 764 766 768 770 772 774 777 779 782 785 790 792 796 799 801 802 804 807 810 814 818 822 826 829 831 833 835 838 840 842
716 721 727 732 737 740 744 746 750 753 755 758 760 763 766 769 771 773 775 778 781 785 788 791 794 797 801 803 805 807 809 812 816 820 823 827 831 832 834 837 839 843 844
711 718 723 729 734 738 742 745 748 752 754 757 759 761 765 768 770 773 775 778 781 784 787 791 794 797 800 803 806 809 812 815 818 821 825 828 831 834 838 840 842 844 845
706 713 720 725 730 735 739 742 746 749 751 754 757 759 763 766 769 771 774 777 781 784 787 791 794 797 800 803 806 809 812 814 818 821 824 827 831 834 837 839 842 844 846
701 707 713 720 726 730 735 739 742 746 749 752 754 758 761 764 767 770 773 776 779 782 786 789 792 794 797 800 803 806 809 812 815 818 821 825 828 832 835 839 842 845 847
692 700 707 714 721 725 730 734 738 743 746 750 753 756 759 762 765 769 772 775 778 781 783 786 788 791 794 796 799 802 805 809 812 816 818 821 825 828 832 835 838 842 845
684 691 698 706 713 719 724 729 733 736 741 745 748 752 756 760 763 765 768 772 775 778 780 781 784 786 789 792 795 798 802 805 808 811 814 818 821 824 827 831 835 839 843
679 686 692 698 705 712 718 724 727 731 734 738 743 746 750 754 758 761 764 767 769 772 774 776 778 781 784 787 790 793 796 799 802 806 810 813 816 820 824 828 832 837 841
672 678 685 691 698 705 711 716 720 724 727 730 734 738 743 748 752 755 757 761 764 766 768 770 773 776 778 781 784 787 790 793 796 799 803 806 810 814 816 820 824 828 831
667 674 679 686 691 695 701 707 712 716 719 722 725 729 732 737 743 747 751 754 757 760 762 764 766 768 771 773 775 778 781 784 787 789 794 797 801 806 812 817 821 826 827
658 665 674 679 685 689 692 698 703 708 712 715 719 722 724 728 733 736 740 745 748 751 755 758 760 762 764 767 769 772 774 775 778 781 785 789 794 798 805 809 813 819 824
650 657 665 672 676 682 687 691 695 698 702 706 710 714 716 720 722 725 730 734 737 739 742 746 749 752 754 755 757 759 763 765 767 770 773 778 786 791 793 799 803 809 817
643 650 655 662 670 674 679 683 685 689 692 696 700 704 707 711 713 716 717 718 721 725 730 734 736 739 742 745 747 750 752 755 758 759 764 769 773 779 784 789 799 805 814
642 647 654 658 660 666 669 673 677 680 683 687 690 694 697 701 704 708 710 712 713 714 716 719 724 728 731 733 736 738 740 742 746 751 755 761 762 768 774 779 786 798 809
638 639 648 659 664 663 664 665 667 670 674 676 679 684 687 690 693 696 698 701 705 707 710 712 713 715 718 719 720 724 727 733 739 743 747 752 758 765 773 775 785 793 802